Location: Casteau
(50.5142°N, 4.0161°E)
Time: 20:58:57
(UTC+00:00)

Tiros 1 - Pass Details

Date: 08 August 2021
Orbit: 630 x 663 km, 48.4° (Epoch: 28 September)

Event Time Altitude Azimuth Distance (km) Brightness Sun altitude
Rises 17:39:28 0° 264° (W) 2,991 12.2 13.8°
Reaches altitude 10° 17:41:50 10° 262° (W) 2,076 11.6 13.4°
Maximum altitude 17:46:36 70° 180° (S) 702 7.5 12.7°
Drops below altitude 10° 17:51:20 10° 97° (E) 2,059 9.2 11.9°
Sets 17:53:40 0° 95° (E) 2,964 9.9 11.6°
